Fort Yukon, AK

3:48 AM AKDT on July 21, 2017 (GMT -0800)
Fort Yukon

Weather History for PFYU - April, 2014

Change the Weather History Date:

Monday, April 28, 2014

  Actual Average Record
Temperature  
Mean Temperature 28 °F -  
Max Temperature 37 °F 40 °F 57 °F (1997)
Min Temperature 19 °F 21 °F 3 °F (2013)
Degree Days  
Heating Degree Days 37    
Moisture  
Dew Point 15 °F    
Average Humidity 55    
Maximum Humidity 74    
Minimum Humidity 33    
Precipitation  
Precipitation 0.00 in - - ()
Sea Level Pressure  
Sea Level Pressure 29.87 in    
Wind  
Wind Speed 9 mph (NE)    
Max Wind Speed 15 mph    
Max Gust Speed 20 mph    
Visibility 10 miles    
Events      
Averages and records for this station are not official NWS values.
T = Trace of Precipitation, MM = Missing Value Source: NWS Daily Summary

Daily Weather History Graph

Daily Weather History Graph

Search for Another Location

Airport or City:

Trip Planner

Search our weather history database for the weather conditions in past years. The results will help you decide how hot, cold, wet, or windy it might be!

Date:

Astronomy

Apr. 28, 2014 Rise Set
Actual Time 5:04 AM AKDT 10:15 PM AKDT
Civil Twilight 3:43 AM AKDT 11:38 PM AKDT
Nautical Twilight Sun does not set Sun does not set
Astronomical Twilight Sun does not set Sun does not set
Moon 5:17 AM AKDT (4/28) 9:51 PM AKDT (4/28)
Length of Visible Light 19h 55m
Length of Day
17h 10m
Waning Crescent, 0% of the Moon is Illuminated
Apr 28
Waning Crescent
Apr 28
New
May 6
First Quarter
May 14
Full
May 21
Last Quarter

Hourly Weather History & Observations

Time (AKDT) Temp. Windchill Dew Point Humidity Pressure Visibility Wind Dir Wind Speed Gust Speed Precip Events Conditions
12:16 AM 26.6 °F 16.2 °F 14.0 °F 59% 29.72 in 10.0 mi ENE 11.5 mph 18.4 mph N/A   Clear
12:56 AM 24.8 °F 13.4 °F 12.2 °F 59% 29.73 in 10.0 mi NE 12.7 mph - N/A   Clear
1:16 AM 24.8 °F 12.9 °F 10.4 °F 54% 29.74 in 10.0 mi NE 13.8 mph 19.6 mph N/A   Clear
1:36 AM 24.8 °F 14.0 °F 10.4 °F 54% 29.75 in 10.0 mi NE 11.5 mph 17.3 mph N/A   Clear
1:56 AM 23.0 °F 10.6 °F 10.4 °F 59% 29.76 in 10.0 mi NE 13.8 mph 19.6 mph N/A   Clear
2:16 AM 23.0 °F 13.1 °F 10.4 °F 59% 29.76 in 10.0 mi NE 9.2 mph 18.4 mph N/A   Clear
2:56 AM 21.2 °F 8.9 °F 10.4 °F 63% 29.77 in 10.0 mi NE 12.7 mph - N/A   Clear
3:16 AM 21.2 °F 7.8 °F 8.6 °F 58% 29.78 in 10.0 mi NE 15.0 mph 19.6 mph N/A   Clear
4:16 AM 19.4 °F 7.2 °F 8.6 °F 63% 29.79 in 10.0 mi NE 11.5 mph - N/A   Clear
4:36 AM 19.4 °F 8.6 °F 8.6 °F 63% 29.80 in 10.0 mi NE 9.2 mph - N/A   Clear
4:56 AM 19.4 °F 7.9 °F 8.6 °F 63% 29.80 in 10.0 mi NE 10.4 mph - N/A   Clear
5:16 AM 19.4 °F 7.2 °F 6.8 °F 58% 29.81 in 10.0 mi NE 11.5 mph - N/A   Clear
5:36 AM 19.4 °F 8.6 °F 6.8 °F 58% 29.81 in 10.0 mi NE 9.2 mph - N/A   Clear
6:16 AM 19.4 °F 7.9 °F 6.8 °F 58% 29.82 in 10.0 mi NE 10.4 mph - N/A   Clear
6:36 AM 19.4 °F 8.6 °F 6.8 °F 58% 29.82 in 10.0 mi NE 9.2 mph - N/A   Clear
6:56 AM 19.4 °F 9.5 °F 6.8 °F 58% 29.83 in 10.0 mi NE 8.1 mph - N/A   Clear
7:16 AM 19.4 °F 9.5 °F 6.8 °F 58% 29.83 in 10.0 mi NE 8.1 mph - N/A   Clear
7:36 AM 19.4 °F 7.9 °F 6.8 °F 58% 29.84 in 10.0 mi NE 10.4 mph - N/A   Clear
7:56 AM 21.2 °F 10.9 °F 8.6 °F 58% 29.85 in 10.0 mi ENE 9.2 mph - N/A   Clear
8:16 AM 21.2 °F 10.1 °F 6.8 °F 54% 29.85 in 10.0 mi NNE 10.4 mph - N/A   Partly Cloudy
8:36 AM 21.2 °F 9.5 °F 8.6 °F 58% 29.85 in 10.0 mi NE 11.5 mph - N/A   Partly Cloudy
8:56 AM 23.0 °F 13.1 °F 8.6 °F 54% 29.86 in 10.0 mi ENE 9.2 mph - N/A   Partly Cloudy
9:16 AM 23.0 °F 11.7 °F 8.6 °F 54% 29.86 in 10.0 mi NE 11.5 mph - N/A   Partly Cloudy
9:36 AM 24.8 °F 15.3 °F 10.4 °F 54% 29.86 in 10.0 mi NNE 9.2 mph - N/A   Partly Cloudy
9:56 AM 24.8 °F 15.3 °F 10.4 °F 54% 29.87 in 10.0 mi ENE 9.2 mph - N/A   Partly Cloudy
10:16 AM 24.8 °F 16.1 °F 10.4 °F 54% 29.87 in 10.0 mi ENE 8.1 mph - N/A   Clear
10:36 AM 26.6 °F 17.5 °F 10.4 °F 51% 29.87 in 10.0 mi NE 9.2 mph - N/A   Clear
10:56 AM 26.6 °F 17.5 °F 12.2 °F 55% 29.88 in 10.0 mi NE 9.2 mph - N/A   Clear
11:16 AM 26.6 °F 18.2 °F 12.2 °F 55% 29.88 in 10.0 mi NNE 8.1 mph - N/A   Clear
11:36 AM 28.4 °F 21.2 °F 12.2 °F 51% 29.88 in 10.0 mi ENE 6.9 mph - N/A   Clear
11:56 AM 28.4 °F 22.2 °F 14.0 °F 55% 29.88 in 10.0 mi ENE 5.8 mph - N/A   Clear
12:16 PM 30.2 °F 22.6 °F 15.8 °F 55% 29.89 in 10.0 mi NE 8.1 mph - N/A   Clear
12:36 PM 30.2 °F 22.6 °F 12.2 °F 47% 29.89 in 10.0 mi NNE 8.1 mph - N/A   Clear
12:56 PM 30.2 °F 22.6 °F 15.8 °F 55% 29.89 in 10.0 mi ENE 8.1 mph - N/A   Clear
1:16 PM 30.2 °F 23.4 °F 15.8 °F 55% 29.89 in 10.0 mi East 6.9 mph - N/A   Clear
1:36 PM 32.0 °F 24.8 °F 15.8 °F 51% 29.89 in 10.0 mi NNE 8.1 mph - N/A   Clear
1:56 PM 32.0 °F 27.5 °F 15.8 °F 51% 29.90 in 10.0 mi NE 4.6 mph - N/A   Clear
2:16 PM 33.8 °F 27.7 °F 15.8 °F 48% 29.90 in 10.0 mi NE 6.9 mph - N/A   Clear
2:36 PM 33.8 °F 27.7 °F 17.6 °F 52% 29.90 in 10.0 mi ENE 6.9 mph - N/A   Partly Cloudy
2:56 PM 33.8 °F 30.8 °F 17.6 °F 52% 29.90 in 10.0 mi NE 3.5 mph - N/A   Partly Cloudy
3:16 PM 33.8 °F 29.6 °F 17.6 °F 52% 29.90 in 10.0 mi NNE 4.6 mph - N/A   Partly Cloudy
3:36 PM 35.6 °F 30.7 °F 17.6 °F 48% 29.90 in 10.0 mi ENE 5.8 mph - N/A   Partly Cloudy
3:56 PM 35.6 °F 31.7 °F 17.6 °F 48% 29.90 in 10.0 mi NE 4.6 mph - N/A   Partly Cloudy
4:16 PM 35.6 °F 29.2 °F 19.4 °F 52% 29.91 in 10.0 mi NNE 8.1 mph - N/A   Clear
4:36 PM 35.6 °F 31.7 °F 17.6 °F 48% 29.91 in 10.0 mi North 4.6 mph - N/A   Clear
4:56 PM 37.4 °F 32.8 °F 19.4 °F 48% 29.91 in 10.0 mi NNE 5.8 mph - N/A   Clear
5:16 PM 37.4 °F - 19.4 °F 48% 29.91 in 10.0 mi Calm Calm - N/A   Clear
5:36 PM 37.4 °F 33.8 °F 19.4 °F 48% 29.91 in 10.0 mi NE 4.6 mph - N/A   Clear
5:56 PM 37.4 °F - 21.2 °F 52% 29.92 in 10.0 mi Calm Calm - N/A   Clear
6:16 PM 37.4 °F 33.8 °F 21.2 °F 52% 29.92 in 10.0 mi NE 4.6 mph - N/A   Clear
6:56 PM 37.4 °F 32.8 °F 21.2 °F 52% 29.92 in 10.0 mi ENE 5.8 mph - N/A   Clear
7:16 PM 37.4 °F 32.8 °F 21.2 °F 52% 29.92 in 10.0 mi NE 5.8 mph - N/A   Clear
7:36 PM 37.4 °F 33.8 °F 21.2 °F 52% 29.93 in 10.0 mi NE 4.6 mph - N/A   Clear
7:56 PM 37.4 °F 33.8 °F 21.2 °F 52% 29.93 in 10.0 mi NE 4.6 mph - N/A   Clear
8:16 PM 37.4 °F 32.1 °F 21.2 °F 52% 29.93 in 10.0 mi NNE 6.9 mph - N/A   Clear
8:36 PM 37.4 °F 33.8 °F 21.2 °F 52% 29.93 in 10.0 mi NNE 4.6 mph - N/A   Clear
8:56 PM 37.4 °F 33.8 °F 21.2 °F 52% 29.93 in 10.0 mi ENE 4.6 mph - N/A   Clear
9:16 PM 35.6 °F 32.8 °F 21.2 °F 56% 29.94 in 10.0 mi NE 3.5 mph - N/A   Clear
9:36 PM 35.6 °F 32.8 °F 21.2 °F 56% 29.94 in 10.0 mi NE 3.5 mph - N/A   Clear
9:56 PM 33.8 °F 30.8 °F 19.4 °F 56% 29.95 in 9.0 mi ENE 3.5 mph - N/A   Clear
10:16 PM 32.0 °F - 21.2 °F 64% 29.95 in 10.0 mi Calm Calm - N/A   Clear
10:36 PM 30.2 °F 26.7 °F 21.2 °F 69% 29.96 in 10.0 mi ENE 3.5 mph - N/A   Clear
10:56 PM 28.4 °F - 21.2 °F 74% 29.96 in 10.0 mi Calm Calm - N/A   Clear
11:16 PM 28.4 °F 24.6 °F 21.2 °F 74% 29.96 in 10.0 mi ENE 3.5 mph - N/A   Clear
11:36 PM 28.4 °F - 21.2 °F 74% 29.96 in 10.0 mi Calm Calm - N/A   Clear
11:56 PM 28.4 °F - 19.4 °F 69% 29.97 in 10.0 mi Calm Calm - N/A   Clear